SHIJIAN 6 03B (SJ-6 03B)

Satellite information

Favourite Embed

Satellite Type and Status

PAYLOADIN ORBIT

Key statistics

Satellite SHIJIAN 6 03B (SJ-6 03B) at a glance.

Uptime

6100

Days in orbit

Revolutions

≈ 15.0

Per day

Orbit

SSO

Sun Synchronous Orbit

Inclination

97.9

Latest

Satellite identification and parameters

Extended collection of information and parameters for SHIJIAN 6 03B (SJ-6 03B).

Object identification

Identified? True

Debris? False

Object name: SHIJIAN 6 03B (SJ-6 03B)

International designator: 2008-053B

Object number (NORAD): 33409

Object ID (CCSDS): 33409

Country: PEOPLES REPUBLIC OF CHINA (PRC)

Current information (Y/N): Y

RCS size: LARGE

Orbital parameters

Period: 95.831 minutes

Inclination: 97.8726 deg

SMA: 6936.876 km

Apoapsis: 574.213 km

Periapsis: 543.268 km

RAAN: 198.2157 deg

Eccentricy: 0.0022305

Argument of periapsis: 117.6989 deg

Mean anomaly: 242.6502 deg

Mean motion: 15.02646788 rev/day

Mean motion (dot): 0.00000873 rev/day2

B* drag term: 0.000070019 1/REarth

Two-line elements (TLE)

Creation date: July 8, 2025, 2:27 a.m.

Reference frame: TEME

Reference center: EARTH

Epoch: July 7, 2025, 10:41 p.m. UTC

TLE line 0: 0 SHIJIAN 6 03B (SJ-6 03B)

TLE line 1: 1 33409U 08053B 25188.94538982 .00000873 00000-0 70019-4 0 9996

TLE line 2: 2 33409 97.8726 198.2157 0022305 117.6989 242.6502 15.02646788911027

Live tracking on map

Real-time ground track for satellite SHIJIAN 6 03B (SJ-6 03B).

In-orbit conjunctions

There are no conjunctions computed for SHIJIAN 6 03B (SJ-6 03B), at the moment. Check back to stay up to date, as we update our databases every day.

Go to all conjunctions

Associated space launch

It was announced that the two satellites had a design life of at least two years, and would be used to probe the space environment, radiation and its effects, record space physical environment parameters, and conduct other related space experiments.

SHIJIAN 6 03B (SJ-6 03B) was lifted into orbit during the mission ‘Long March 4B | Shi Jian 6E & 6F’, on board a Long March 4B space rocket.

The launch took place on Oct. 25, 2008, 1:15 a.m. from Launch Complex 9.

For more information about the launch, click the button.

Launch to space Long March 4B | Shi Jian 6E & 6F
Long March 4B | Shi Jian 6E & 6F

Agency: N/A

Status: Launch Successful

Launch date: Oct. 25, 2008, 1:15 a.m. UTC

Rocket: Long March 4B

Launch pad: Launch Complex 9

Location: Taiyuan Satellite Launch Center, People's Republic of China

...

Latest news about this satellite

There are no fresh news available about this satellite. Check back as we update our databases every day.


Newsletter sign-up

Weekly statistics, charts and insights to help you stay on top of the space industry.